Tracking 28790 objects as of 19-Apr-2024
HD Live streaming from Space Station
objects crossing your sky now

THOR ABLESTAR DEB

Track THOR ABLESTAR DEB now!
10-day predictions


NORAD ID: 516
Int'l Code: 1961-015FT
Perigee: 865.9 km
Apogee: 991.6 km
Inclination: 66.0 °
Period: 103.4 minutes
Semi major axis: 7299 km
RCS: 0.1377 m2 (medium)
Launch date: June 29, 1961
Source: United States (US)
Launch site: AIR FORCE EASTERN TEST RANGE (AFETR)

Note: This is SATELLITE DEBRIS
Your satellite tracking list
Your tracking list is empty




NASA's NSSDC Master Catalog

Two Line Element Set (TLE):
1   516U 61015FT  24110.46915718  .00000474  00000-0  42270-3 0  9997
2   516  65.9963 341.4307 0086132 211.9996 147.5831 13.92011230179087
Source of the keplerian elements: AFSPC